Tracking 19638 objects as of 20-May-2019
HD Live streaming from Space Station
objects crossing your sky now

UNISAT 6

Track UNISAT 6 now!
10-day predictions
UNISAT 6 is classified as:


NORAD ID: 40012
Int'l Code: 2014-033C
Perigee: 614.9 km
Apogee: 696.3 km
Inclination: 97.8 °
Period: 97.7 minutes
Semi major axis: 7026 km
RCS: Unknown
Launch date: June 19, 2014
Source: Italy (IT)
Launch site: Orenburg, Russia (OREN)

Uplink (MHz):
Downlink (MHz): 437.421
Beacon (MHz):
Mode: 9600bps GMSK
Call sign: II0US
Status: Active

aabbcc
Your satellite tracking list
Your tracking list is empty




NASA's NSSDC Master Catalog

Two Line Element Set (TLE):
1 40012U 14033C   19139.87403099  .00000152  00000-0  30135-4 0  9995
2 40012  97.7617   7.7640 0057907 192.6800 167.2956 14.73965421264295
Source of the keplerian elements: Caltech